Vertical_Velocity
-4 3 -9 -10 12 -14 -4 -3 -13 29 -1 -2 12 51 11 -47 42 1 -1 -7 -3 -1 -3 0 -1 -5 -2 -4 -1 -2 0 -7 -10 0 -2 -10 -4 -8 -7 0 -4 -2 -4 -3
4 -6 -10 1 24 3 -1 -10 -2 19 29 7 -5 7 -4 3 -7 -8 -3 -8 -2 -4 -3 -5 -3 -1 -2 -4 -2 -2 -0 -4 -6 -5 -4 -1 1 1 6 5 2 2 7 3
-5 -10 32 22 -6 -5 -6 2 22 -0 -2 -9 2 -13 31 4 22 6 5 -3 -8 -4 -2 -2 -2 -6 -4 -3 1 1 -2 -1 2 0 1 1 1 0 -3 4 -5 4 -1 6
0 -15 19 0 -10 3 6 7 22 -3 -4 2 -14 -18 -2 -4 -31 14 -5 -9 -7 -7 -8 -2 -2 -3 -7 -1 -6 -4 -6 -0 -1 3 5 2 -1 -4 -3 -3 -5 4 3 9
-43 7 1 -7 -7 9 -11 -7 4 -0 1 13 0 9 26 -1 -7 28 -3 -4 0 -9 -6 -8 -5 -8 -8 -5 -3 0 0 2 2 0 -2 4 7 6 2 -1 -0 -6 -7 -10
-10 12 -2 -1 -10 1 15 14 -6 -3 -1 10 -9 27 -18 -11 -34 48 11 -14 -2 -1 -9 -7 2 2 -2 -3 -5 -4 -4 -1 -2 2 0 1 -4 -4 3 4 7 18 27 0
7 -15 15 6 9 18 -1 9 -3 7 11 -10 10 -2 0 -12 -31 47 17 -20 -5 4 4 -4 -9 1 -1 -4 1 0 0 3 2 -2 2 7 -3 -21 -17 1 -0 9 2 -8
-0 15 -4 -7 -9 -8 -14 1 -4 -3 -1 4 -6 -3 17 -13 -6 -18 -13 7 44 4 -10 -1 -6 -11 -1 4 -1 0 0 4 -1 1 -2 1 -5 12 11 -9 -4 -4 2 -21
13 -13 14 -1 -2 -5 3 -0 -17 5 -5 11 -4 -14 38 14 6 -8 9 5 -16 -11 35 1 -2 -4 -12 -11 -4 2 3 2 -0 -2 -5 -28 -23 -9 24 9 15 -6 4 13
-33 26 -13 13 16 -6 -1 13 20 8 2 0 -2 -0 14 -9 4 0 -9 13 21 -17 -3 25 8 1 0 -10 -8 -8 -2 8 0 -1 2 7 4 -5 -14 5 10 2 2 4
-6 31 -26 32 -1 -6 1 12 -10 13 4 0 -0 3 -4 -43 21 6 13 -7 -19 14 -11 -6 -5 31 40 44 16 -4 -15 -6 12 -3 1 10 3 11 6 6 1 -4 -2 7
-20 5 -10 -5 -4 -22 10 -7 1 13 -6 7 -1 -21 28 -40 14 13 -5 10 -12 -4 14 -16 -1 -1 -2 -2 15 -11 -1 7 2 -4 9 11 15 7 9 4 3 3 2 2
-35 -9 8 15 5 12 -9 21 11 3 1 -5 -7 -27 17 -3 -13 -5 -1 3 -3 -7 -11 14 -14 -7 -5 2 6 3 -3 -0 22 -3 6 0 -2 -6 -0 9 -0 1 0 2
27 -2 -4 -12 -34 0 8 14 -9 2 15 -21 -5 -5 0 21 -35 3 13 18 -3 9 0 -12 1 -11 -8 -9 -3 -1 6 4 8 -8 -2 -6 3 3 -6 -2 0 0 0 -1
15 3 -0 4 -3 28 -16 -6 -8 17 2 18 -18 -10 -15 21 39 12 20 -18 -0 -3 -7 7 -1 2 -12 -4 -4 0 -10 2 9 -9 -10 -1 -2 -3 1 -4 2 3 4 1
-0 2 -4 -4 -9 -2 12 -28 19 -2 -7 5 3 -3 -3 2 -8 2 26 20 4 -7 8 -2 -1 10 -10 -5 -9 -4 6 6 3 5 -2 0 -3 1 2 5 7 5 6 3
2 7 2 -11 -2 6 19 -17 8 8 21 10 11 -15 -7 28 -52 9 6 2 -14 -2 -13 -8 11 5 -9 -0 -5 -2 -1 2 -3 3 3 1 2 3 2 -1 -1 1 -0 -1
-3 2 7 -5 6 14 -32 -1 14 -3 -16 -8 10 10 3 -1 -5 -0 8 -4 -4 -11 -8 -2 1 -1 3 -1 3 0 2 4 0 -1 3 5 0 1 -1 -1 -1 -3 -1 -0
-5 7 3 4 -1 -14 -2 -7 -2 2 -27 -18 -18 -24 -4 12 21 -2 -5 -1 4 -5 -1 -2 0 2 1 -3 0 -2 1 3 3 -0 -1 -4 -2 -4 -2 -0 0 -0 -1 -0
-5 -5 12 10 3 -4 -19 -20 2 9 -14 1 -11 -1 6 19 3 -7 -8 -11 -5 -2 -1 -2 1 2 0 0 2 4 4 -0 -2 -1 -1 -0 1 1 2 -0 -0 0 -1 -0
-0 -12 2 -2 1 -6 -9 -17 -13 46 -57 6 12 -7 25 0 -7 -13 -13 -2 -0 -0 -2 -3 -2 -1 1 -0 -4 -3 1 2 1 -1 -0 0 1 -0 0 1 0 0 -1 2
-5 -2 -8 2 5 -6 7 9 25 -23 -6 11 -17 4 -2 1 -9 2 -1 -3 -3 1 -0 1 -1 1 2 3 5 2 1 -2 -1 0 2 1 -0 -3 -2 -1 -1 -3 -0 -1
4 -30 -29 16 -2 3 1 -21 9 3 7 -3 23 19 16 -11 -9 -2 -0 -3 1 1 5 1 1 2 -1 -1 -1 -2 2 3 -0 1 2 0 -3 -0 0 3 2 0 3 -1
9 2 -9 10 -34 10 -22 -0 -0 5 5 5 12 27 22 -5 -0 2 -1 -2 1 -1 4 2 0 1 -1 -1 -2 2 1 -1 2 0 1 0 -3 0 -1 -1 -3 -0 1 2
-18 17 7 -6 -10 -27 -7 -11 28 8 7 -10 -4 -2 2 5 -9 4 1 -3 2 3 1 1 5 3 4 4 -0 2 -1 -2 -4 -2 -3 2 -1 3 -2 3 4 5 4 -0
-2 -13 1 -14 -11 2 10 33 -24 15 -4 9 0 -6 -1 -0 -3 2 -0 1 1 2 0 2 6 5 1 1 4 1 0 -2 2 -0 0 2 -5 -0 -3 4 0 5 3 2
Height
3103 3105 3103 3101 3101 3098 3098 3097 3096 3091 3092 3092 3093 3095 3092 3094 3098 3100 3095 3093 3092 3093 3095 3095 3097 3098 3099 3101 3102 3105 3108 3110 3111 3115 3120 3125 3130 3133 3136 3139 3142 3145 3148 3150
3102 3098 3099 3098 3097 3096 3095 3096 3093 3092 3091 3093 3091 3090 3086 3089 3092 3096 3094 3092 3093 3093 3095 3096 3098 3101 3103 3103 3105 3108 3110 3112 3114 3118 3122 3126 3130 3133 3136 3139 3141 3143 3145 3147
3095 3095 3096 3095 3095 3095 3094 3093 3092 3093 3092 3090 3089 3089 3090 3092 3092 3092 3094 3093 3093 3093 3095 3097 3100 3101 3103 3105 3107 3110 3112 3113 3115 3119 3123 3126 3129 3132 3134 3136 3138 3141 3143 3145
3091 3092 3092 3093 3092 3093 3091 3092 3092 3092 3092 3090 3089 3089 3086 3088 3086 3092 3092 3092 3093 3094 3096 3098 3100 3102 3103 3105 3107 3109 3111 3113 3116 3119 3122 3126 3128 3130 3133 3135 3136 3138 3140 3141
3084 3087 3088 3089 3089 3090 3091 3091 3091 3091 3090 3088 3087 3090 3082 3085 3086 3088 3090 3092 3093 3094 3095 3097 3099 3101 3102 3104 3107 3110 3112 3115 3117 3120 3122 3124 3127 3129 3130 3131 3133 3134 3138 3139
3080 3083 3084 3085 3086 3087 3088 3089 3089 3089 3087 3085 3081 3081 3085 3083 3087 3086 3086 3091 3093 3093 3094 3096 3099 3100 3102 3104 3106 3109 3111 3113 3115 3118 3119 3122 3126 3126 3129 3131 3130 3130 3130 3136
3076 3077 3080 3081 3083 3084 3086 3087 3086 3086 3082 3080 3079 3079 3076 3078 3081 3084 3084 3085 3088 3092 3093 3094 3096 3098 3100 3102 3104 3106 3108 3111 3113 3114 3117 3119 3122 3123 3125 3125 3127 3126 3118 3112
3071 3073 3074 3076 3078 3081 3082 3084 3085 3087 3086 3083 3080 3077 3075 3077 3081 3082 3084 3086 3088 3087 3090 3091 3093 3094 3097 3099 3102 3104 3106 3109 3110 3111 3112 3116 3119 3121 3120 3119 3121 3120 3121 3118
3067 3067 3071 3073 3075 3078 3078 3078 3079 3083 3087 3086 3082 3075 3076 3075 3079 3081 3082 3084 3086 3087 3088 3089 3090 3091 3092 3095 3098 3100 3102 3105 3105 3106 3108 3109 3113 3116 3114 3114 3114 3115 3116 3114
3060 3064 3065 3066 3071 3073 3073 3076 3077 3076 3079 3080 3072 3071 3069 3075 3076 3077 3081 3082 3083 3084 3086 3088 3088 3089 3089 3089 3092 3095 3097 3097 3100 3099 3100 3103 3103 3105 3107 3107 3108 3106 3107 3108
3056 3060 3062 3062 3062 3067 3070 3070 3072 3073 3074 3074 3074 3072 3071 3076 3075 3076 3079 3078 3081 3082 3081 3082 3084 3087 3087 3081 3078 3083 3088 3091 3092 3094 3095 3096 3097 3098 3099 3102 3102 3101 3102 3103
3050 3056 3058 3058 3060 3063 3064 3065 3066 3066 3071 3072 3072 3071 3071 3072 3074 3075 3075 3077 3077 3079 3079 3078 3079 3081 3084 3086 3089 3086 3087 3087 3091 3089 3089 3091 3092 3094 3095 3098 3097 3098 3097 3097
3048 3049 3053 3053 3057 3058 3058 3060 3062 3063 3066 3066 3071 3071 3069 3070 3070 3070 3070 3072 3073 3073 3076 3076 3074 3076 3079 3081 3084 3084 3083 3083 3083 3083 3084 3085 3087 3088 3089 3090 3092 3092 3091 3090
3042 3043 3043 3046 3048 3053 3054 3054 3057 3058 3061 3063 3063 3065 3066 3066 3066 3068 3068 3069 3069 3070 3070 3072 3071 3071 3073 3075 3077 3078 3078 3079 3077 3078 3080 3082 3082 3084 3085 3086 3086 3085 3084 3083
3034 3036 3041 3044 3044 3046 3048 3049 3052 3053 3055 3056 3058 3060 3061 3061 3061 3062 3066 3066 3066 3066 3067 3067 3069 3067 3066 3069 3070 3071 3071 3074 3074 3072 3075 3077 3079 3080 3079 3080 3080 3079 3078 3076
3030 3031 3036 3039 3040 3040 3044 3045 3045 3047 3049 3050 3052 3053 3056 3057 3055 3059 3061 3061 3059 3061 3063 3062 3064 3063 3059 3063 3063 3066 3068 3069 3069 3070 3070 3070 3072 3074 3073 3073 3073 3072 3070 3068
3024 3027 3032 3031 3037 3038 3034 3039 3040 3042 3044 3045 3045 3048 3051 3051 3054 3054 3054 3054 3054 3054 3055 3056 3059 3057 3053 3055 3057 3059 3062 3063 3064 3065 3066 3067 3066 3066 3065 3064 3063 3062 3061 3060
3016 3022 3027 3029 3034 3028 3027 3032 3035 3035 3037 3039 3040 3043 3045 3046 3048 3048 3047 3048 3047 3046 3048 3050 3050 3050 3050 3050 3051 3052 3054 3056 3058 3059 3060 3060 3060 3060 3059 3057 3056 3054 3052 3050
3012 3016 3020 3022 3024 3025 3025 3029 3030 3031 3034 3036 3036 3038 3039 3041 3040 3039 3040 3042 3041 3039 3041 3041 3042 3043 3043 3044 3045 3046 3048 3050 3051 3052 3053 3053 3053 3051 3050 3049 3048 3046 3044 3042
3010 3012 3018 3018 3018 3016 3019 3025 3027 3030 3024 3029 3031 3032 3034 3035 3032 3034 3033 3034 3033 3033 3033 3032 3033 3034 3036 3038 3039 3040 3041 3043 3044 3045 3045 3044 3043 3042 3041 3040 3038 3036 3034 3032
3003 3009 3010 3014 3013 3010 3012 3019 3024 3022 3025 3025 3027 3027 3028 3026 3028 3028 3028 3026 3026 3026 3025 3025 3026 3028 3030 3031 3033 3035 3037 3037 3037 3036 3036 3035 3034 3034 3033 3032 3030 3028 3026 3024
2997 3002 3006 3010 3010 3007 3010 3013 3015 3018 3018 3021 3022 3022 3021 3021 3021 3022 3021 3019 3018 3019 3018 3019 3020 3022 3025 3027 3028 3029 3029 3030 3030 3029 3029 3028 3027 3026 3025 3023 3021 3019 3018 3016
2990 2991 2999 3003 3000 3002 3005 3008 3010 3013 3015 3016 3017 3016 3016 3014 3016 3016 3015 3014 3012 3012 3013 3013 3014 3016 3018 3020 3021 3022 3023 3023 3022 3022 3021 3020 3019 3018 3016 3014 3012 3010 3010 3008
2986 2987 2990 2996 2993 2994 2998 3001 3004 3007 3008 3008 3008 3010 3009 3008 3010 3010 3009 3007 3007 3006 3007 3007 3008 3009 3011 3013 3014 3015 3015 3015 3014 3013 3012 3012 3011 3010 3007 3005 3003 3003 3002 3000
2983 2987 2986 2984 2987 2993 2994 2992 2994 2999 3000 3001 3002 3003 3004 3002 3002 3002 3002 3001 3000 3000 3000 3001 3002 3003 3004 3005 3005 3006 3006 3005 3004 3004 3003 3003 3001 3000 2997 2997 2995 2994 2992 2990
2977 2979 2981 2980 2985 2987 2988 2991 2990 2992 2991 2995 2994 2996 2998 2997 2996 2995 2995 2995 2994 2993 2994 2994 2995 2996 2996 2996 2996 2996 2995 2993 2993 2994 2994 2993 2992 2990 2988 2989 2986 2986 2984 2982